Flag for Indonesia Weather past 2 weeks in Manado, North Sulawesi, Indonesia

79 °F

Passing clouds.

Feels Like: 82 °F
Forecast: 77 / 89 °F
Wind: 2 mph from Northeast

Location: Menado / Dr. Sam Ratulangi

Current Time: Nov 28, 2015 at 7:20:09 PM

Latest Report: Nov 28, 2015 at 7:00 PM

Visibility: 5 mi

Pressure: 29.86 "Hg

Humidity: 89%

Dew point: 75 °F

Location of ManadoLocation

Historic Weather in Manado — Graph


Manado temperature yesterday

Maximum temperature yesterday: 91 °F (at 10:00 AM)
Minimum temperature yesterday: 73 °F (at 4:30 AM)
Average temperature yesterday: 80 °F

Past Weeks' High & Low Weather Summary

High95 °F (Nov 24, 10:30 AM)100% (Nov 13, 9:30 PM)29.89 "Hg (Nov 13, 9:30 PM)
Low73 °F (Nov 16, 2:00 AM)49% (Nov 16, 2:00 PM)29.71 "Hg (Nov 21, 3:00 PM)
Average80 °F84%29.81 "Hg
* Reported Nov 13 6:00 PM — Nov 28 6:00 PM, Manado, Weather by CustomWeather, © 2015

Note: Actual official high and low records may vary slightly from our data, if they occured in-between our weather recording intervals... More about our weather records


Manado weather history for previous 24 hours

Time TempWeatherWind HumidityBarometerVisibility
6:00 PM
Sat, Nov 28
79 °FPassing clouds.2 mph89%29.83 "Hg6 mi
5:30 PM79 °FPassing clouds.2 mph89%29.83 "Hg6 mi
5:00 PM81 °FPassing clouds.6 mph84%29.83 "Hg6 mi
4:30 PM84 °FPassing clouds.3 mph74%29.80 "Hg6 mi
4:00 PM86 °FScattered clouds.8 mph66%29.80 "Hg6 mi
3:30 PM86 °FRain. Scattered clouds.9 mph70%29.77 "HgN/A
3:00 PM86 °FScattered clouds.7 mph70%29.77 "HgN/A
2:00 PM90 °FScattered clouds.5 mph71%29.80 "HgN/A
1:30 PM88 °FScattered clouds.7 mph70%29.80 "HgN/A
1:00 PM91 °FScattered clouds.6 mph56%29.80 "HgN/A
12:30 PM91 °FScattered clouds.8 mph63%29.83 "HgN/A
12:00 PM88 °FScattered clouds.9 mph66%29.83 "HgN/A
11:30 AM88 °FScattered clouds.8 mph66%29.86 "HgN/A
11:00 AM88 °FScattered clouds.7 mph66%29.86 "HgN/A
10:30 AM88 °FScattered clouds.3 mph66%29.86 "HgN/A
10:00 AM88 °FScattered clouds.5 mph62%29.86 "HgN/A
9:30 AM88 °FWarm.6 mph62%29.89 "HgN/A
9:00 AM88 °FPassing clouds.3 mph62%29.89 "HgN/A
8:30 AM90 °FPassing clouds.2 mph63%29.89 "HgN/A
8:00 AM86 °FPassing clouds.3 mph70%29.89 "HgN/A
7:30 AM84 °FPassing clouds.3 mph79%29.89 "HgN/A
7:00 AM82 °FPassing clouds.1 mph79%29.86 "HgN/A
6:30 AM79 °FPassing clouds.No wind84%29.86 "Hg6 mi
6:00 AM77 °FPassing clouds.No wind94%29.86 "Hg6 mi
5:30 AM75 °FFog.2 mph94%29.83 "Hg4 mi
5:00 AM75 °FFog.2 mph94%29.83 "Hg3 mi
4:30 AM75 °FPassing clouds.3 mph94%29.83 "Hg6 mi
3:00 AM75 °FPassing clouds.1 mph94%29.83 "Hg6 mi
2:00 AM75 °FPassing clouds.1 mph94%29.83 "Hg6 mi
1:30 AM75 °FPassing clouds.No wind94%29.83 "Hg6 mi
1:00 AM75 °FPassing clouds.1 mph94%29.83 "Hg6 mi
12:30 AM75 °FPassing clouds.1 mph94%29.83 "Hg6 mi
12:00 AM75 °FPassing clouds.No wind94%29.83 "Hg6 mi
11:30 PM
Fri, Nov 27
75 °FPassing clouds.2 mph94%29.86 "Hg6 mi
11:00 PM75 °FPassing clouds.3 mph94%29.86 "Hg6 mi
10:30 PM77 °FFog.3 mph94%29.86 "Hg3 mi
10:00 PM77 °FPassing clouds.2 mph94%29.86 "Hg5 mi
9:30 PM77 °FFog.3 mph94%29.86 "Hg3 mi
9:00 PM77 °FFog.2 mph94%29.86 "Hg4 mi
8:30 PM79 °FFog.No wind94%29.86 "Hg3 mi
8:00 PM79 °FFog.2 mph94%29.86 "Hg3 mi
7:30 PM79 °FFog.No wind94%29.86 "Hg3 mi
7:00 PM79 °FFog.3 mph94%29.83 "Hg3 mi
Weather by CustomWeather, © 2015

See weather overviewHow to use our weather pages